Rayong, Thailand

7:06 PM +07 on September 25, 2017 (GMT +0700)
U-Taphao International

Weather History for VTBU - January, 2013

Change the Weather History Date:

Monday, January 14, 2013

  Actual Average Record
Temperature  
Mean Temperature 80 °F -  
Max Temperature 91 °F 87 °F 93 °F (2007)
Min Temperature 68 °F 71 °F 64 °F (1997)
Cooling Degree Days 14    
Growing Degree Days 30 (Base 50)    
Moisture  
Dew Point 65 °F    
Average Humidity 65    
Maximum Humidity 94    
Minimum Humidity 38    
Precipitation  
Precipitation 0.00 in - - ()
Sea Level Pressure  
Sea Level Pressure 29.85 in    
Wind  
Wind Speed 2 mph ()    
Max Wind Speed 9 mph    
Max Gust Speed -    
Visibility 4.2 miles    
Events      
Averages and records for this station are not official NWS values.
T = Trace of Precipitation, MM = Missing Value Source: Averaged Metar Reports

Daily Weather History Graph

Daily Weather History Graph

Search for Another Location

Airport or City:

Trip Planner

Search our weather history database for the weather conditions in past years. The results will help you decide how hot, cold, wet, or windy it might be!

Date:

Astronomy

Jan. 14, 2013 Rise Set
Actual Time 6:39 AM +07 6:07 PM +07
Civil Twilight 6:17 AM +07 6:30 PM +07
Nautical Twilight 5:51 AM +07 6:56 PM +07
Astronomical Twilight 5:25 AM +07 7:22 PM +07
Moon 8:28 AM +07 (1/14) 8:39 PM +07 (1/14)
Length of Visible Light 12h 12m
Length of Day
11h 27m
Waxing Crescent, 8% of the Moon is Illuminated
Jan 14
Waxing Crescent
Jan 19
First Quarter
Jan 27
Full
Feb 3
Last Quarter
Feb 10
New

Hourly Weather History & Observations

Time (+07) Temp. Heat Index Dew Point Humidity Pressure Visibility Wind Dir Wind Speed Gust Speed Precip Events Conditions
12:00 AM 75.2 °F - 68.0 °F 78% 29.83 in 3.7 mi Calm Calm - N/A   Scattered Clouds
12:30 AM 73.4 °F - 68.0 °F 83% 29.83 in 3.7 mi Calm Calm - N/A   Scattered Clouds
1:00 AM 71.6 °F - 68.0 °F 88% 29.83 in 3.7 mi Calm Calm - N/A   Scattered Clouds
1:30 AM 71.6 °F - 66.2 °F 83% 29.83 in 3.7 mi Calm Calm - N/A   Scattered Clouds
2:30 AM 71.6 °F - 66.2 °F 83% 29.83 in 3.7 mi Calm Calm - N/A   Scattered Clouds
3:00 AM 69.8 °F - 66.2 °F 88% 29.83 in 3.7 mi Calm Calm - N/A   Scattered Clouds
3:30 AM 71.6 °F - 66.2 °F 83% 29.83 in 3.7 mi Calm Calm - N/A   Scattered Clouds
4:30 AM 71.6 °F - 66.2 °F 83% 29.83 in 3.7 mi Calm Calm - N/A   Scattered Clouds
6:00 AM 68.0 °F - 66.2 °F 94% 29.86 in 3.1 mi Calm Calm - N/A   Scattered Clouds
6:30 AM 68.0 °F - 64.4 °F 88% 29.86 in 3.1 mi Calm Calm - N/A   Scattered Clouds
7:00 AM 68.0 °F - 66.2 °F 94% 29.89 in 3.1 mi Calm Calm - N/A   Scattered Clouds
7:30 AM 71.6 °F - 66.2 °F 83% 29.89 in 3.1 mi Calm Calm - N/A   Scattered Clouds
8:00 AM 73.4 °F - 68.0 °F 83% 29.89 in 3.7 mi Calm Calm - N/A   Scattered Clouds
9:00 AM 80.6 °F 83.9 °F 69.8 °F 70% 29.89 in 4.3 mi Calm Calm - N/A   Scattered Clouds
9:30 AM 84.2 °F 86.6 °F 66.2 °F 55% 29.89 in 4.3 mi Calm Calm - N/A   Scattered Clouds
10:00 AM 86.0 °F 86.6 °F 62.6 °F 45% 29.89 in 4.3 mi SW 6.9 mph - N/A   Scattered Clouds
10:30 AM 86.0 °F 86.1 °F 60.8 °F 43% 29.89 in 5.0 mi West 4.6 mph - N/A   Scattered Clouds
11:00 AM 84.2 °F 87.3 °F 68.0 °F 58% 29.89 in 5.0 mi NW 4.6 mph - N/A   Scattered Clouds
11:30 AM 84.2 °F 88.4 °F 69.8 °F 62% 29.89 in 5.0 mi NNW 6.9 mph - N/A   Scattered Clouds
12:00 PM 87.8 °F 91.4 °F 68.0 °F 52% 29.86 in 5.0 mi North 9.2 mph - N/A   Scattered Clouds
12:30 PM 86.0 °F 88.2 °F 66.2 °F 51% 29.86 in 5.0 mi North 6.9 mph - N/A   Scattered Clouds
1:00 PM 87.8 °F 89.4 °F 64.4 °F 46% 29.83 in 5.0 mi NNW 3.5 mph - N/A   Scattered Clouds
1:30 PM 89.6 °F 90.1 °F 62.6 °F 40% 29.83 in 5.0 mi North 3.5 mph - N/A   Scattered Clouds
2:00 PM 89.6 °F 91.1 °F 64.4 °F 43% 29.80 in 5.0 mi NW 6.9 mph - N/A   Scattered Clouds
2:30 PM 89.6 °F 90.1 °F 62.6 °F 40% 29.80 in 5.0 mi West 4.6 mph - N/A   Scattered Clouds
3:00 PM 91.4 °F 92.1 °F 62.6 °F 38% 29.80 in 5.0 mi SW 6.9 mph - N/A   Scattered Clouds
3:30 PM 87.8 °F 88.5 °F 62.6 °F 43% 29.80 in 5.0 mi SW 9.2 mph - N/A   Scattered Clouds
4:00 PM 87.8 °F 87.6 °F 60.8 °F 40% 29.80 in 5.0 mi SW 6.9 mph - N/A   Scattered Clouds
4:30 PM 87.8 °F 87.6 °F 60.8 °F 40% 29.83 in 5.0 mi WSW 9.2 mph - N/A   Scattered Clouds
5:00 PM 86.0 °F 86.6 °F 62.6 °F 45% 29.83 in 5.0 mi NNW 6.9 mph - N/A   Scattered Clouds
5:30 PM 86.0 °F 86.1 °F 60.8 °F 43% 29.83 in 5.0 mi SW 6.9 mph - N/A   Scattered Clouds
6:00 PM 84.2 °F 85.6 °F 64.4 °F 51% 29.83 in 4.3 mi SSW 6.9 mph - N/A   Scattered Clouds
6:30 PM 82.4 °F 84.6 °F 66.2 °F 58% 29.83 in 4.3 mi South 3.5 mph - N/A   Scattered Clouds
7:00 PM 80.6 °F 82.7 °F 66.2 °F 61% 29.83 in 4.3 mi South 2.3 mph - N/A   Scattered Clouds
7:30 PM 77.0 °F - 66.2 °F 69% 29.86 in 4.3 mi NE 3.5 mph - N/A   Scattered Clouds
8:00 PM 77.0 °F - 66.2 °F 69% 29.86 in 3.7 mi South 2.3 mph - N/A   Scattered Clouds
8:30 PM 75.2 °F - 66.2 °F 73% 29.86 in 3.7 mi North 3.5 mph - N/A   Scattered Clouds
9:00 PM 75.2 °F - 66.2 °F 73% 29.86 in 3.7 mi NNE 2.3 mph - N/A   Scattered Clouds
9:30 PM 73.4 °F - 66.2 °F 78% 10.11 in 3.7 mi NE 2.3 mph - N/A   Scattered Clouds
10:00 PM 73.4 °F - 64.4 °F 73% 29.86 in 3.7 mi NNE 2.3 mph - N/A   Scattered Clouds
10:30 PM 71.6 °F - 64.4 °F 78% 29.86 in 3.7 mi Calm Calm - N/A   Scattered Clouds
11:00 PM 71.6 °F - 64.4 °F 78% 29.86 in 3.7 mi Calm Calm - N/A   Scattered Clouds
11:30 PM 71.6 °F - 64.4 °F 78% 29.86 in 3.1 mi Calm Calm - N/A   Mist